CEB243 VHHH-RPVI

Flight info

Callsign CEB243
Flight time 2h 11m
Altitude 35000
Route DALOL V641 NOMAN A461 AVMUP W16 MIA A461 VERDE W24 TAPER B472 LAMBO LAMBO2N
Aircraft A320/M-SDE3FGHIRWY/LB1

Departure

Time 2026-04-22 17:21
Airport Hong Kong International Airport (VHHH)

Arrival

Time 2026-04-22 19:32
Airport Iloilo International Airport (RPVI)
Time Latitude Longitude Altitude Speed Heading
2026-04-22 17:00 22.31118 113.92726 35 ft 0 kts 295°
2026-04-22 17:08 22.31113 113.92736 37 ft 3 kts 295°
2026-04-22 17:09 22.31105 113.92753 36 ft 3 kts 295°
2026-04-22 17:09 22.31097 113.92773 35 ft 3 kts 295°
2026-04-22 17:09 22.31091 113.92786 34 ft 3 kts 295°
2026-04-22 17:09 22.31082 113.92807 35 ft 3 kts 286°
2026-04-22 17:10 22.31079 113.92826 36 ft 3 kts 249°
2026-04-22 17:10 22.31089 113.92843 34 ft 3 kts 214°
2026-04-22 17:10 22.31103 113.92852 35 ft 1 kts 206°
2026-04-22 17:10 22.31107 113.92854 36 ft 0 kts 206°
2026-04-22 17:16 22.31086 113.92843 33 ft 7 kts 205°
2026-04-22 17:16 22.31032 113.92815 37 ft 9 kts 205°
2026-04-22 17:16 22.30981 113.92789 37 ft 10 kts 205°
2026-04-22 17:17 22.30921 113.92760 37 ft 9 kts 195°
2026-04-22 17:17 22.30879 113.92800 36 ft 8 kts 108°
2026-04-22 17:17 22.30884 113.92847 37 ft 7 kts 74°
2026-04-22 17:17 22.30900 113.92890 37 ft 6 kts 68°
2026-04-22 17:18 22.30912 113.92927 37 ft 7 kts 70°
2026-04-22 17:18 22.30936 113.93004 37 ft 15 kts 72°
2026-04-22 17:18 22.30953 113.93104 37 ft 13 kts 94°
2026-04-22 17:18 22.30904 113.93197 35 ft 15 kts 140°
2026-04-22 17:19 22.30794 113.93248 36 ft 10 kts 161°
2026-04-22 17:19 22.30723 113.93208 33 ft 0 kts 248°
2026-04-22 17:20 22.30606 113.92847 35 ft 83 kts 251°
2026-04-22 17:20 22.30045 113.91117 47 ft 170 kts 249°
2026-04-22 17:21 22.29647 113.89899 643 ft 172 kts 250°
2026-04-22 17:21 22.28916 113.87627 1867 ft 173 kts 249°
2026-04-22 17:22 22.27744 113.85234 2452 ft 216 kts 235°
2026-04-22 17:22 22.26847 113.83824 2829 ft 240 kts 236°
2026-04-22 17:22 22.24274 113.81389 4178 ft 264 kts 195°
2026-04-22 17:23 22.22658 113.81216 4836 ft 271 kts 185°
2026-04-22 17:23 22.19196 113.81936 6242 ft 288 kts 149°
2026-04-22 17:23 22.17719 113.83433 6992 ft 295 kts 135°
2026-04-22 17:24 22.16386 113.85139 7754 ft 300 kts 126°
2026-04-22 17:24 22.15584 113.86888 8400 ft 305 kts 114°
2026-04-22 17:24 22.14790 113.89027 9164 ft 308 kts 115°
2026-04-22 17:24 22.14088 113.90912 9802 ft 312 kts 114°
2026-04-22 17:25 22.13591 113.93193 10427 ft 320 kts 98°
2026-04-22 17:25 22.13361 113.95664 10631 ft 343 kts 97°
2026-04-22 17:25 22.13154 113.97967 10753 ft 363 kts 97°
2026-04-22 17:25 22.12912 114.00725 11154 ft 375 kts 97°
2026-04-22 17:26 22.12699 114.03173 11662 ft 379 kts 97°
2026-04-22 17:26 22.12442 114.06019 12263 ft 384 kts 97°
2026-04-22 17:26 22.12081 114.08888 12888 ft 387 kts 100°
2026-04-22 17:26 22.11647 114.11584 13459 ft 391 kts 102°
2026-04-22 17:27 22.11339 114.13319 13794 ft 394 kts 102°
2026-04-22 17:27 22.10344 114.17124 14514 ft 396 kts 118°
2026-04-22 17:27 22.09196 114.19406 14990 ft 397 kts 121°
2026-04-22 17:27 22.07829 114.22010 15532 ft 400 kts 122°
2026-04-22 17:28 22.06461 114.24590 16081 ft 403 kts 122°
2026-04-22 17:28 22.05054 114.27223 16608 ft 407 kts 122°
2026-04-22 17:28 22.03819 114.29526 17077 ft 409 kts 122°
2026-04-22 17:28 22.02386 114.32197 17584 ft 413 kts 122°
2026-04-22 17:29 22.01131 114.34541 18027 ft 416 kts 122°
2026-04-22 17:29 21.99687 114.37248 18490 ft 419 kts 121°
2026-04-22 17:29 21.98232 114.39981 18917 ft 422 kts 121°
2026-04-22 17:29 21.96950 114.42385 19285 ft 424 kts 121°
2026-04-22 17:30 21.95477 114.45151 19717 ft 427 kts 121°
2026-04-22 17:30 21.94038 114.47848 20113 ft 430 kts 121°
2026-04-22 17:30 21.92689 114.50378 20486 ft 432 kts 121°
2026-04-22 17:30 21.91186 114.53195 20899 ft 435 kts 121°
2026-04-22 17:31 21.89865 114.55665 21250 ft 438 kts 121°
2026-04-22 17:31 21.88340 114.58514 21644 ft 441 kts 121°
2026-04-22 17:31 21.86852 114.61296 22030 ft 443 kts 121°
2026-04-22 17:31 21.85457 114.63899 22383 ft 446 kts 121°
2026-04-22 17:32 21.84429 114.65817 22628 ft 448 kts 121°
2026-04-22 17:32 21.82497 114.69425 23095 ft 451 kts 121°
2026-04-22 17:32 21.80972 114.72273 23455 ft 454 kts 121°
2026-04-22 17:32 21.79408 114.75189 23763 ft 457 kts 121°
2026-04-22 17:33 21.78534 114.76817 23939 ft 458 kts 121°
2026-04-22 17:33 21.76397 114.80799 24366 ft 461 kts 121°
2026-04-22 17:33 21.74811 114.83745 24681 ft 462 kts 123°
2026-04-22 17:33 21.73595 114.85686 24886 ft 463 kts 129°
2026-04-22 17:34 21.71768 114.87945 25153 ft 462 kts 138°
2026-04-22 17:34 21.69465 114.90355 25463 ft 463 kts 138°
2026-04-22 17:34 21.67482 114.92430 25731 ft 465 kts 138°
2026-04-22 17:34 21.65155 114.94867 26038 ft 467 kts 137°
2026-04-22 17:35 21.62814 114.97315 26346 ft 470 kts 137°
2026-04-22 17:35 21.60758 114.99466 26612 ft 471 kts 137°
2026-04-22 17:35 21.58424 115.01927 26915 ft 474 kts 137°
2026-04-22 17:35 21.56374 115.04105 27181 ft 475 kts 137°
2026-04-22 17:36 21.54023 115.06608 27478 ft 477 kts 137°
2026-04-22 17:36 21.51655 115.09129 27787 ft 479 kts 137°
2026-04-22 17:36 21.49583 115.11330 28042 ft 481 kts 137°
2026-04-22 17:36 21.47194 115.13861 28325 ft 483 kts 137°
2026-04-22 17:37 21.44794 115.16398 28597 ft 485 kts 137°
2026-04-22 17:37 21.42385 115.18946 28867 ft 487 kts 137°
2026-04-22 17:37 21.40273 115.21177 29103 ft 489 kts 137°
2026-04-22 17:37 21.37842 115.23747 29343 ft 491 kts 137°
2026-04-22 17:38 21.35434 115.26290 29599 ft 493 kts 137°
2026-04-22 17:38 21.33293 115.28549 29819 ft 495 kts 137°
2026-04-22 17:38 21.30833 115.31142 30039 ft 497 kts 137°
2026-04-22 17:38 21.28676 115.33414 30235 ft 498 kts 137°
2026-04-22 17:39 21.26200 115.36022 30525 ft 498 kts 137°
2026-04-22 17:39 21.23737 115.38622 30841 ft 497 kts 137°
2026-04-22 17:39 21.19136 115.43472 31428 ft 496 kts 137°
2026-04-22 17:40 21.16992 115.45725 31703 ft 495 kts 137°
2026-04-22 17:40 21.14534 115.48305 32023 ft 494 kts 137°
2026-04-22 17:40 21.12079 115.50879 32337 ft 493 kts 137°
2026-04-22 17:40 21.09945 115.53116 32610 ft 493 kts 137°
2026-04-22 17:41 21.07497 115.55687 32826 ft 493 kts 137°
2026-04-22 17:41 21.02955 115.60456 32869 ft 486 kts 137°
2026-04-22 17:42 20.98458 115.65169 32872 ft 484 kts 137°
2026-04-22 17:42 20.93674 115.70174 32875 ft 484 kts 137°
2026-04-22 17:43 20.89185 115.74887 32871 ft 484 kts 137°
2026-04-22 17:43 20.84687 115.79588 32871 ft 483 kts 137°
2026-04-22 17:44 20.80179 115.84299 32866 ft 483 kts 137°
2026-04-22 17:44 20.75369 115.89313 32867 ft 483 kts 137°
2026-04-22 17:45 20.70866 115.93996 32864 ft 483 kts 137°
2026-04-22 17:45 20.66359 115.98678 32865 ft 482 kts 137°
2026-04-22 17:46 20.61851 116.03354 32870 ft 482 kts 137°
2026-04-22 17:46 20.57036 116.08345 32866 ft 482 kts 137°
2026-04-22 17:47 20.52569 116.12986 32870 ft 482 kts 137°
2026-04-22 17:47 20.47753 116.17967 32871 ft 482 kts 137°
2026-04-22 17:48 20.43246 116.22622 32868 ft 482 kts 137°
2026-04-22 17:48 20.38742 116.27276 32872 ft 482 kts 137°
2026-04-22 17:49 20.34156 116.32013 32879 ft 482 kts 136°
2026-04-22 17:49 20.29408 116.36908 32875 ft 482 kts 136°
2026-04-22 17:50 20.24926 116.41537 32880 ft 482 kts 136°
2026-04-22 17:50 20.20287 116.46310 32894 ft 482 kts 136°
2026-04-22 17:51 20.15584 116.51146 32892 ft 482 kts 136°
2026-04-22 17:51 20.11091 116.55776 32880 ft 482 kts 136°
2026-04-22 17:52 20.06585 116.60406 32881 ft 482 kts 136°
2026-04-22 17:52 20.01964 116.65143 32880 ft 481 kts 136°
2026-04-22 17:53 19.97323 116.70052 32884 ft 482 kts 134°
2026-04-22 17:53 19.93092 116.74983 32879 ft 482 kts 131°
2026-04-22 17:54 19.88648 116.80315 32877 ft 482 kts 132°
2026-04-22 17:54 19.84442 116.85262 32880 ft 482 kts 133°
2026-04-22 17:55 19.80191 116.90162 32883 ft 481 kts 133°
2026-04-22 17:55 19.75821 116.95177 32886 ft 481 kts 133°
2026-04-22 17:56 19.71433 117.00237 32885 ft 480 kts 132°
2026-04-22 17:56 19.67206 117.05141 32880 ft 480 kts 132°
2026-04-22 17:57 19.62982 117.10028 32886 ft 480 kts 132°
2026-04-22 17:57 19.58742 117.14915 32883 ft 480 kts 133°
2026-04-22 17:58 19.54219 117.20115 32876 ft 479 kts 132°
2026-04-22 17:58 19.49989 117.24982 32876 ft 479 kts 132°
2026-04-22 17:59 19.45753 117.29844 32876 ft 479 kts 132°
2026-04-22 17:59 19.41228 117.35045 32885 ft 479 kts 132°
2026-04-22 18:00 19.37763 117.39027 32876 ft 479 kts 132°
2026-04-22 18:00 19.32518 117.45057 32872 ft 479 kts 132°
2026-04-22 18:01 19.27991 117.50247 32882 ft 479 kts 132°
2026-04-22 18:01 19.23465 117.55428 32867 ft 479 kts 132°
2026-04-22 18:02 19.18933 117.60604 32877 ft 479 kts 132°
2026-04-22 18:02 19.14402 117.65782 32880 ft 480 kts 132°
2026-04-22 18:03 19.09866 117.70968 32882 ft 480 kts 132°
2026-04-22 18:03 19.05332 117.76143 32886 ft 480 kts 132°
2026-04-22 18:04 19.00829 117.81282 32891 ft 479 kts 132°
2026-04-22 18:04 18.96297 117.86445 32889 ft 479 kts 132°
2026-04-22 18:05 18.91758 117.91604 32887 ft 479 kts 132°
2026-04-22 18:05 18.87229 117.96752 32886 ft 478 kts 132°
2026-04-22 18:06 18.82703 118.01900 32882 ft 478 kts 132°
2026-04-22 18:06 18.78180 118.07046 32882 ft 478 kts 132°
2026-04-22 18:07 18.74414 118.11316 32879 ft 478 kts 132°
2026-04-22 18:07 18.69109 118.17307 32883 ft 478 kts 132°
2026-04-22 18:08 18.64581 118.22428 32888 ft 477 kts 132°
2026-04-22 18:08 18.60091 118.27524 32888 ft 477 kts 132°
2026-04-22 18:09 18.55575 118.32637 32887 ft 476 kts 132°
2026-04-22 18:09 18.51056 118.37740 32891 ft 476 kts 132°
2026-04-22 18:10 18.46530 118.42837 32894 ft 476 kts 132°
2026-04-22 18:10 18.42017 118.47928 32895 ft 475 kts 132°
2026-04-22 18:11 18.37501 118.53016 32895 ft 475 kts 132°
2026-04-22 18:11 18.32987 118.58094 32894 ft 475 kts 133°
2026-04-22 18:12 18.28478 118.63167 32897 ft 474 kts 133°
2026-04-22 18:12 18.24729 118.67377 32895 ft 474 kts 133°
2026-04-22 18:13 18.19462 118.73295 32894 ft 474 kts 133°
2026-04-22 18:13 18.14989 118.78325 32896 ft 474 kts 133°
2026-04-22 18:14 18.10479 118.83368 32893 ft 473 kts 133°
2026-04-22 18:14 18.05976 118.88416 32897 ft 473 kts 133°
2026-04-22 18:15 18.01477 118.93460 32900 ft 473 kts 134°
2026-04-22 18:15 17.96280 118.97650 32895 ft 472 kts 152°
2026-04-22 18:16 17.90513 119.00967 32892 ft 472 kts 151°
2026-04-22 18:16 17.84760 119.04307 32894 ft 472 kts 151°
2026-04-22 18:17 17.79008 119.07647 32893 ft 472 kts 151°
2026-04-22 18:17 17.73248 119.10981 32898 ft 472 kts 151°
2026-04-22 18:18 17.67495 119.14307 32901 ft 472 kts 151°
2026-04-22 18:18 17.61788 119.17613 32898 ft 472 kts 151°
2026-04-22 18:19 17.56043 119.20934 32898 ft 471 kts 152°
2026-04-22 18:19 17.50298 119.24246 32900 ft 471 kts 152°
2026-04-22 18:20 17.44564 119.27556 32902 ft 470 kts 152°
2026-04-22 18:20 17.39198 119.30653 32905 ft 470 kts 152°
2026-04-22 18:21 17.33837 119.33736 32904 ft 469 kts 152°
2026-04-22 18:21 17.28478 119.36822 32906 ft 469 kts 152°
2026-04-22 18:22 17.23137 119.39895 32904 ft 469 kts 152°
2026-04-22 18:22 17.17465 119.43156 32905 ft 468 kts 152°
2026-04-22 18:23 17.12133 119.46218 32906 ft 468 kts 152°
2026-04-22 18:23 17.06800 119.49280 32904 ft 467 kts 152°
2026-04-22 18:24 16.98606 119.53980 32904 ft 466 kts 152°
2026-04-22 18:25 16.90440 119.58657 32903 ft 466 kts 152°
2026-04-22 18:25 16.84797 119.61889 32900 ft 466 kts 152°
2026-04-22 18:26 16.76506 119.66637 32899 ft 465 kts 152°
2026-04-22 18:26 16.71928 119.69251 32900 ft 465 kts 152°
2026-04-22 18:27 16.66249 119.72499 32896 ft 465 kts 152°
2026-04-22 18:27 16.60937 119.75535 32901 ft 465 kts 152°
2026-04-22 18:28 16.55272 119.78761 32901 ft 465 kts 152°
2026-04-22 18:28 16.49607 119.81988 32903 ft 465 kts 152°
2026-04-22 18:29 16.43911 119.85232 32903 ft 464 kts 152°
2026-04-22 18:29 16.38282 119.88442 32907 ft 464 kts 152°
2026-04-22 18:30 16.30143 119.93079 32909 ft 464 kts 152°
2026-04-22 18:31 16.24869 119.96084 32912 ft 464 kts 152°
2026-04-22 18:31 16.19555 119.99111 32917 ft 464 kts 152°
2026-04-22 18:32 16.14244 120.02116 32919 ft 464 kts 152°
2026-04-22 18:32 16.08614 120.05295 32927 ft 463 kts 152°
2026-04-22 18:33 16.03294 120.08311 32928 ft 463 kts 152°
2026-04-22 18:33 15.98126 120.11253 32931 ft 463 kts 152°
2026-04-22 18:34 15.94963 120.12883 32624 ft 464 kts 159°
2026-04-22 18:34 15.89580 120.15642 32756 ft 462 kts 151°
2026-04-22 18:34 15.87222 120.17081 32908 ft 463 kts 149°
2026-04-22 18:35 15.84617 120.18719 32942 ft 463 kts 149°
2026-04-22 18:35 15.79074 120.22102 32946 ft 462 kts 151°
2026-04-22 18:36 15.73806 120.25103 32950 ft 461 kts 152°
2026-04-22 18:36 15.68178 120.28219 32958 ft 461 kts 153°
2026-04-22 18:37 15.62907 120.31151 32961 ft 461 kts 152°
2026-04-22 18:37 15.57266 120.34332 32967 ft 461 kts 152°
2026-04-22 18:38 15.51635 120.37522 32966 ft 461 kts 152°
2026-04-22 18:38 15.45999 120.40703 32954 ft 461 kts 152°
2026-04-22 18:39 15.38278 120.45045 32939 ft 460 kts 152°
2026-04-22 18:39 15.32847 120.48096 32927 ft 460 kts 152°
2026-04-22 18:40 15.27424 120.51153 32924 ft 460 kts 152°
2026-04-22 18:40 15.21804 120.54315 32922 ft 460 kts 152°
2026-04-22 18:41 15.16229 120.57565 32925 ft 460 kts 149°
2026-04-22 18:41 15.11220 120.60948 32924 ft 460 kts 146°
2026-04-22 18:42 15.06295 120.64455 32924 ft 460 kts 146°
2026-04-22 18:42 15.01143 120.68050 32925 ft 460 kts 147°
2026-04-22 18:43 14.96127 120.71455 32932 ft 460 kts 147°
2026-04-22 18:43 14.91125 120.74820 32934 ft 460 kts 147°
2026-04-22 18:44 14.85773 120.78446 32937 ft 459 kts 147°
2026-04-22 18:44 14.80798 120.81834 32928 ft 459 kts 147°
2026-04-22 18:45 14.75803 120.85231 32921 ft 459 kts 147°
2026-04-22 18:45 14.70486 120.88840 32916 ft 459 kts 147°
2026-04-22 18:46 14.65145 120.92457 32916 ft 459 kts 147°
2026-04-22 18:46 14.59789 120.96077 32914 ft 459 kts 147°
2026-04-22 18:47 14.54848 120.99402 32914 ft 459 kts 150°
2026-04-22 18:47 14.49038 121.01789 32916 ft 457 kts 169°
2026-04-22 18:48 14.43002 121.02253 32911 ft 455 kts 180°
2026-04-22 18:48 14.37129 121.02300 32906 ft 455 kts 180°
2026-04-22 18:49 14.31195 121.02365 32904 ft 455 kts 180°
2026-04-22 18:49 14.24860 121.02436 32902 ft 455 kts 180°
2026-04-22 18:50 14.19146 121.02494 32899 ft 455 kts 180°
2026-04-22 18:50 14.13220 121.02549 32899 ft 455 kts 180°
2026-04-22 18:51 14.06882 121.02615 32898 ft 455 kts 180°
2026-04-22 18:51 14.00948 121.02674 32899 ft 456 kts 180°
2026-04-22 18:52 13.94601 121.02728 32897 ft 456 kts 180°
2026-04-22 18:52 13.88261 121.02794 32899 ft 456 kts 180°
2026-04-22 18:53 13.82372 121.02861 32895 ft 456 kts 180°
2026-04-22 18:53 13.76015 121.02927 32900 ft 456 kts 180°
2026-04-22 18:54 13.70074 121.02981 32899 ft 455 kts 181°
2026-04-22 18:54 13.63740 121.03040 32898 ft 455 kts 181°
2026-04-22 18:55 13.57448 121.03105 32905 ft 455 kts 181°
2026-04-22 18:55 13.51581 121.03726 32904 ft 457 kts 166°
2026-04-22 18:56 13.45793 121.06393 32908 ft 459 kts 147°
2026-04-22 18:56 13.40852 121.09873 32900 ft 460 kts 147°
2026-04-22 18:57 13.35904 121.13346 32902 ft 460 kts 147°
2026-04-22 18:57 13.30610 121.17066 32913 ft 460 kts 147°
2026-04-22 18:58 13.25691 121.20519 32911 ft 460 kts 147°
2026-04-22 18:58 13.20398 121.24229 32915 ft 460 kts 147°
2026-04-22 18:59 13.15101 121.27938 32919 ft 460 kts 147°
2026-04-22 18:59 13.09816 121.31635 32913 ft 460 kts 147°
2026-04-22 19:00 13.04533 121.35331 32915 ft 460 kts 147°
2026-04-22 19:00 12.99589 121.38793 32911 ft 459 kts 147°
2026-04-22 19:01 12.94639 121.42250 32907 ft 459 kts 147°
2026-04-22 19:01 12.89395 121.45922 32899 ft 459 kts 147°
2026-04-22 19:02 12.84115 121.49616 32899 ft 459 kts 147°
2026-04-22 19:02 12.78833 121.53303 32901 ft 459 kts 147°
2026-04-22 19:03 12.73547 121.56993 32898 ft 459 kts 147°
2026-04-22 19:03 12.68267 121.60681 32893 ft 459 kts 147°
2026-04-22 19:04 12.62987 121.64367 32888 ft 459 kts 147°
2026-04-22 19:04 12.58082 121.67785 32884 ft 459 kts 147°
2026-04-22 19:05 12.53142 121.71217 32884 ft 459 kts 147°
2026-04-22 19:05 12.48211 121.74650 32889 ft 459 kts 147°
2026-04-22 19:06 12.42925 121.78330 32887 ft 459 kts 147°
2026-04-22 19:07 12.35592 121.83163 32884 ft 457 kts 156°
2026-04-22 19:07 12.29736 121.85747 32537 ft 457 kts 158°
2026-04-22 19:07 12.26829 121.87015 32293 ft 456 kts 158°
2026-04-22 19:08 12.23898 121.88291 32049 ft 455 kts 158°
2026-04-22 19:08 12.20989 121.89557 31807 ft 453 kts 158°
2026-04-22 19:08 12.18125 121.90800 31566 ft 451 kts 158°
2026-04-22 19:08 12.15605 121.91891 31359 ft 450 kts 158°
2026-04-22 19:09 12.12746 121.93137 31124 ft 448 kts 158°
2026-04-22 19:09 12.10247 121.94228 30896 ft 445 kts 158°
2026-04-22 19:09 12.08331 121.95065 30551 ft 443 kts 158°
2026-04-22 19:09 12.04587 121.96704 29778 ft 441 kts 157°
2026-04-22 19:10 12.02128 121.97782 29240 ft 439 kts 157°
2026-04-22 19:10 11.99332 121.99003 28691 ft 435 kts 157°
2026-04-22 19:10 11.97003 122.00015 28214 ft 432 kts 157°
2026-04-22 19:10 11.94157 122.01245 27657 ft 428 kts 157°
2026-04-22 19:11 11.91419 122.02431 27123 ft 425 kts 157°
2026-04-22 19:11 11.89052 122.03461 26664 ft 422 kts 157°
2026-04-22 19:11 11.86360 122.04635 26151 ft 419 kts 157°
2026-04-22 19:11 11.84025 122.05656 25713 ft 416 kts 156°
2026-04-22 19:12 11.81409 122.06802 25227 ft 413 kts 156°
2026-04-22 19:12 11.78779 122.07951 24748 ft 410 kts 156°
2026-04-22 19:12 11.76493 122.08946 24332 ft 407 kts 156°
2026-04-22 19:12 11.73896 122.10073 23856 ft 404 kts 156°
2026-04-22 19:13 11.71647 122.11048 23443 ft 402 kts 156°
2026-04-22 19:13 11.69080 122.12163 22913 ft 399 kts 156°
2026-04-22 19:13 11.66539 122.13267 22443 ft 395 kts 156°
2026-04-22 19:13 11.64347 122.14221 22036 ft 392 kts 156°
2026-04-22 19:14 11.61846 122.15309 21565 ft 390 kts 156°
2026-04-22 19:14 11.59675 122.16251 21147 ft 388 kts 156°
2026-04-22 19:14 11.57196 122.17325 20665 ft 386 kts 157°
2026-04-22 19:14 11.54728 122.18394 20184 ft 385 kts 157°
2026-04-22 19:15 11.53417 122.18962 19924 ft 384 kts 157°
2026-04-22 19:15 11.50153 122.20380 19273 ft 383 kts 157°
2026-04-22 19:15 11.48516 122.21091 18949 ft 383 kts 157°
2026-04-22 19:15 11.45608 122.22356 18373 ft 382 kts 157°
2026-04-22 19:16 11.43176 122.23415 17850 ft 381 kts 157°
2026-04-22 19:16 11.40745 122.24472 17353 ft 374 kts 157°
2026-04-22 19:16 11.38376 122.25499 16889 ft 366 kts 158°
2026-04-22 19:16 11.36073 122.26495 16443 ft 360 kts 158°
2026-04-22 19:17 11.33786 122.27485 15995 ft 353 kts 158°
2026-04-22 19:17 11.31545 122.28455 15564 ft 349 kts 158°
2026-04-22 19:17 11.29307 122.29426 15130 ft 349 kts 158°
2026-04-22 19:17 11.27063 122.30396 14695 ft 349 kts 158°
2026-04-22 19:18 11.24837 122.31354 14254 ft 349 kts 158°
2026-04-22 19:18 11.22898 122.32189 13870 ft 347 kts 158°
2026-04-22 19:18 11.20697 122.33142 13489 ft 338 kts 158°
2026-04-22 19:18 11.18597 122.34054 13345 ft 323 kts 158°
2026-04-22 19:19 11.17502 122.34530 13173 ft 318 kts 158°
2026-04-22 19:19 11.15433 122.35247 12825 ft 310 kts 169°
2026-04-22 19:19 11.13456 122.35644 12600 ft 309 kts 170°
2026-04-22 19:19 11.11488 122.36036 12312 ft 309 kts 169°
2026-04-22 19:20 11.09381 122.36459 11886 ft 308 kts 169°
2026-04-22 19:20 11.07285 122.36881 11448 ft 307 kts 169°
2026-04-22 19:20 11.05197 122.37304 11011 ft 304 kts 169°
2026-04-22 19:20 11.03141 122.37720 10576 ft 299 kts 169°
2026-04-22 19:21 11.01359 122.38080 10206 ft 298 kts 169°
2026-04-22 19:21 10.99326 122.38490 9775 ft 298 kts 169°
2026-04-22 19:21 10.97310 122.38895 9303 ft 294 kts 169°
2026-04-22 19:21 10.95574 122.39244 8940 ft 290 kts 170°
2026-04-22 19:22 10.93569 122.39483 8527 ft 291 kts 182°
2026-04-22 19:22 10.91583 122.39140 8109 ft 288 kts 197°
2026-04-22 19:22 10.89968 122.38667 7757 ft 286 kts 196°
2026-04-22 19:22 10.88086 122.38138 7348 ft 285 kts 195°
2026-04-22 19:23 10.86176 122.37615 6926 ft 283 kts 195°
2026-04-22 19:23 10.84276 122.37100 6517 ft 282 kts 195°
2026-04-22 19:23 10.82382 122.36591 6091 ft 281 kts 195°
2026-04-22 19:23 10.80491 122.36085 5671 ft 281 kts 194°
2026-04-22 19:24 10.78602 122.35577 5253 ft 280 kts 194°
2026-04-22 19:24 10.76721 122.35069 4848 ft 279 kts 194°
2026-04-22 19:24 10.74855 122.34562 4432 ft 277 kts 194°
2026-04-22 19:24 10.72996 122.34058 4021 ft 276 kts 193°
2026-04-22 19:25 10.71147 122.33557 3692 ft 271 kts 193°
2026-04-22 19:25 10.69364 122.33078 3562 ft 259 kts 191°
2026-04-22 19:25 10.67850 122.33003 3419 ft 247 kts 166°
2026-04-22 19:25 10.66331 122.33713 3360 ft 244 kts 138°
2026-04-22 19:26 10.65341 122.35077 3305 ft 240 kts 110°
2026-04-22 19:26 10.64761 122.36667 3221 ft 241 kts 109°
2026-04-22 19:26 10.64263 122.38061 3134 ft 241 kts 108°
2026-04-22 19:26 10.63772 122.39682 3029 ft 238 kts 94°
2026-04-22 19:27 10.63978 122.41200 2940 ft 235 kts 65°
2026-04-22 19:27 10.64895 122.42399 2847 ft 226 kts 36°
2026-04-22 19:27 10.66291 122.43058 2755 ft 217 kts 21°
2026-04-22 19:27 10.67681 122.43566 2671 ft 208 kts 21°
2026-04-22 19:28 10.68827 122.43987 2602 ft 201 kts 22°
2026-04-22 19:28 10.70131 122.44468 2520 ft 198 kts 21°
2026-04-22 19:28 10.71389 122.44929 2422 ft 187 kts 22°
2026-04-22 19:28 10.72592 122.45372 2133 ft 179 kts 21°
2026-04-22 19:29 10.73575 122.45733 1938 ft 165 kts 21°
2026-04-22 19:29 10.74596 122.46110 1711 ft 149 kts 21°
2026-04-22 19:29 10.75539 122.46458 1524 ft 141 kts 21°
2026-04-22 19:29 10.76296 122.46737 1377 ft 139 kts 21°
2026-04-22 19:30 10.76929 122.46969 1241 ft 137 kts 20°
2026-04-22 19:30 10.78126 122.47414 996 ft 138 kts 20°
2026-04-22 19:30 10.79025 122.47755 795 ft 138 kts 20°
2026-04-22 19:30 10.79822 122.48039 641 ft 139 kts 18°
2026-04-22 19:31 10.80724 122.48375 466 ft 140 kts 19°
2026-04-22 19:31 10.81629 122.48715 301 ft 138 kts 19°
2026-04-22 19:31 10.82532 122.49048 151 ft 134 kts 19°
2026-04-22 19:31 10.83248 122.49313 141 ft 70 kts 20°
2026-04-22 19:32 10.83502 122.49407 141 ft 22 kts 20°
2026-04-22 19:32 10.83564 122.49480 141 ft 10 kts 108°
2026-04-22 19:32 10.83538 122.49542 140 ft 9 kts 112°
2026-04-22 19:32 10.83516 122.49598 140 ft 8 kts 112°
2026-04-22 19:33 10.83496 122.49648 140 ft 7 kts 115°
2026-04-22 19:33 10.83459 122.49674 140 ft 7 kts 168°
2026-04-22 19:33 10.83399 122.49662 140 ft 10 kts 198°
2026-04-22 19:33 10.83335 122.49641 140 ft 9 kts 199°
2026-04-22 19:34 10.83287 122.49620 140 ft 8 kts 202°
2026-04-22 19:34 10.83239 122.49602 140 ft 7 kts 199°
2026-04-22 19:34 10.83200 122.49591 140 ft 5 kts 179°
2026-04-22 19:34 10.83181 122.49615 140 ft 4 kts 112°
2026-04-22 19:35 10.83173 122.49639 140 ft 3 kts 109°
2026-04-22 19:35 10.83169 122.49649 140 ft 1 kts 110°
2026-04-22 19:35 10.83169 122.49651 140 ft 0 kts 110°
2026-04-22 19:35 10.83168 122.49653 140 ft 0 kts 110°